STARLINK-1569, 46039

Orbit data source: Space-Track

STARLINK-1569, 46039 is a payload satellite owned by SpaceX/Seattle (US) in LEO that was launched on Fri, 07 Aug 2020 UTC via an FALCON 9 launch vehicle from the Air Force Eastern Test Range (AFETR). Payload-class satellites include a variety of spacecraft equipped with specific instruments for various scientific and technological missions. These include communications satellites like Starlink; space stations such as the ISS; scientific satellites like the Hubble; Earth observation satellites from companies like Planet Labs, Umbra, and HawkEye 360; GPS; miniature CubeSats for education and research; and military/defense satellites.

Loading next visibility...
Identifier
46039, 2020-055N
Orbit
LEO
Country
Flag of USUS
Related business
Manufacturer
SpaceX/Seattle
Mission
Operational Commercial Communications
Bus & Motor
STARLINK, Unknown motor
Mass
260 kg wet, ~248 kg dry
Launch date (UTC)
2020-08-07 (6 years ago)
Launch vehicle
FALCON 9
Launch site
Air Force Eastern Test Range (AFETR)
Object type
Payload
Rocket body
Debris
Shape & HBR
Box + 1 Pan, 10.1 m
Radar Cross Section
13.562 m², Large (>1 m²)

Expand to show TLE details & history
Last TLE update: 7 hours ago

TLE from 7 hours ago
0 STARLINK-1569
1 46039U 20055N   26220.17139174  .00004270  00000-0  14929-3 0  9990
2 46039  53.1585 142.5246 0001231  85.4612 274.6530 15.31699651332087
Epoch: 2026-08-08T04:06Z
TLE epoch observation values (Epoch: 2026-08-08T04:06:48.246Z)
Latitude
-0.00001°
Longitude
124.137°
Altitude
471.573 km
Speed
7.632 km/s
True Right ascension
09h 30m 05s
True Declination
0° 00' 00"
Sunlit
Object was in daylight at epoch
Visualization orbit readout
Latitude
Unknown
Longitude
Unknown
Altitude
Unknown
Speed
Unknown
Apparent Right ascension
Unknown
Apparent Declination
Unknown
Sunlit
N/A
Visualization observer readout
Local Sidereal Time
01:00:09
Azimuth
Unknown
Elevation
Unknown
Doppler factor
Unknown
Orbital elements
Apogee altitude
471.841 km
Perigee altitude
470.155 km
Semi-major axis
6,849.135 km
Eccentricity
0.00012
Inclination
53.1585°
RAAN
142.5246°
Arg. of periapsis
85.4612°
True anomaly
274.63894°
Mean anomaly
274.653°
Eccentric anomaly
274.64597°
Mean motion
3.82904 °/min
Orbital period
94.02 mins
BSTAR
0.00014929
Loading maneuver chart data...
Computing Atmospheric mass density...
Loading historical data...
Loading historical data...
Loading historical data...
Loading historical data...
Loading historical data...
Loading historical data...
Loading historical data...

Documentation

Showing up to 5 results
|